Location: *
(41.0169°N, 1.3328°W)
Time: 04:17:45
(UTC+00:00)

Daily predictions for brighter satellites

Satellite Brightness Start Highest point End
(mag) Time Altitude Azimuth Time Altitude Azimuth Time Altitude Azimuth
Cosmos 2322 Rocket 4.3 02:48:51 20° NNE 02:48:51 20° NNE 02:50:26 10° NNE
Cosmos 2360 Rocket 3.8 02:59:56 31° NE 02:59:56 31° NE 03:02:52 10° NNE
USA 267 4.1 02:52:04 10° NE 02:56:29 43° NNE 02:56:29 43° NNE
IDEFIX/ARIANE 42P 4.0 03:07:57 10° NNE 03:12:40 33° E 03:12:52 32° E
Cosmos 1844 Rocket 3.6 03:20:51 44° NE 03:21:27 46° ENE 03:26:46 10° SE
Cosmos 2333 Rocket 3.6 03:28:22 26° SE 03:30:24 34° ESE 03:35:28 10° NE
USA 234 3.3 03:24:26 10° ESE 03:30:58 77° NE 03:31:51 66° NNW
Cosmos 2251 Rocket 4.0 03:37:18 59° E 03:37:18 59° E 03:42:28 10° NNE
Cosmos 1844 4.4 03:33:28 10° NNW 03:39:09 52° ENE 03:44:45 10° SE
Cosmos 2098 Rocket 4.2 03:40:56 69° SSW 03:41:54 82° W 03:49:27 10° N
Cosmos 2333 4.3 03:46:28 67° SE 03:46:54 70° ESE 03:52:31 10° NNE
H-2A R/B 3.8 03:43:36 10° NNE 03:47:27 37° E 03:47:58 36° ESE
BREEZE-M DEB (TANK) 3.1 03:50:38 60° ESE 03:50:38 60° ESE 03:53:02 10° ESE
SL-16 R/B 4.0 03:58:09 18° NNW 03:58:09 18° NNW 04:00:22 10° N
Cosmos 2322 3.5 03:56:17 81° WNW 03:56:22 81° WNW 04:02:07 10° NNE
ATLAS 2AS CENTAUR R/B 3.8 03:56:01 10° S 04:03:32 50° ESE 04:11:15 10° NE
NOSS 2-2 (C) 4.0 04:04:48 50° E 04:04:48 50° E 04:08:03 10° NE
Cosmos 1378 4.2 04:05:27 41° NE 04:05:27 41° NE 04:08:05 10° NNE
COSMOS 2455 2.7 04:05:48 63° W 04:06:26 68° WNW 04:12:28 10° NNE
ADEOS 3.4 04:01:18 10° NNE 04:06:32 80° WNW 04:07:15 66° SW
USA 238 DEB 4.3 04:02:40 10° NNW 04:09:49 62° NE 04:17:09 10° SE
USA 238 4.3 04:02:47 10° NNW 04:09:55 61° NE 04:17:14 10° SE
Cosmos 2219 Rocket 2.2 04:08:49 33° S 04:11:23 76° ESE 04:16:59 10° NNE
ADEOS II 4.4 04:09:46 10° NNW 04:09:55 10° NNW 04:09:55 10° NNW
Cosmos 2237 Rocket 4.0 04:10:38 10° SSE 04:15:31 31° ESE 04:20:26 10° NE
Meteor 1-31 Rocket 4.1 04:16:20 10° NNE 04:19:56 39° E 04:23:29 10° SSE
COSMOS 2428 2.6 04:18:13 30° SSW 04:21:06 90° WNW 04:26:49 10° NNE
Cosmos 1470 4.4 04:25:05 10° N 04:28:43 35° ENE 04:32:18 10° SE
Cosmos 2322 Rocket 4.0 04:30:40 14° NW 04:30:40 14° NW 04:32:48 10° NNW
Cosmos 1842 3.1 04:30:18 53° SSW 04:31:08 75° W 04:35:06 10° N
Cosmos 1709 Rocket 4.1 04:27:55 26° SW 04:31:18 52° WNW 04:37:28 10° N
NOSS 3-2 (A) 4.2 04:29:45 10° NNW 04:37:24 77° NE 04:45:52 10° SE
Cosmos 1733 3.0 04:33:38 10° N 04:37:30 78° W 04:41:20 10° S
USA 267 4.5 04:35:24 10° NE 04:40:42 27° NNW 04:43:49 19° NW
NOSS 2-2 (E) 3.5 04:40:35 44° WNW 04:40:43 44° NW 04:44:40 10° NNE
Cosmos 2360 Rocket 3.4 04:41:43 23° NW 04:41:44 23° NW 04:46:08 10° N
CZ-4B R/B 2.9 04:41:29 10° NNE 04:45:37 81° ESE 04:49:30 10° S
Aureole 1 Rocket 4.0 04:44:10 10° SW 04:51:07 54° WNW 04:56:29 10° N
Cosmos 389 Rocket 3.6 04:48:14 10° S 04:51:30 45° E 04:54:48 10° NNE
GPS 2-05 Rocket1 4.3 04:52:12 18° S 04:52:12 18° S 04:53:56 10° SSE
ERBS 2.7 04:50:18 25° SSW 04:52:04 61° SE 04:55:25 10° NE
IDEFIX/ARIANE 42P 3.3 04:47:36 10° N 04:52:10 31° WNW 04:53:39 26° W
NOSS 3-2 (C) 4.3 04:50:59 10° NNW 04:58:38 73° NE 05:07:05 10° SE
COSMO-SKYMED 1 3.7 04:54:31 10° SE 04:58:41 47° ENE 05:02:51 10° N
MSX 4.1 04:54:07 10° N 04:59:30 44° WNW 05:04:52 10° SW
Cosmos 1844 Rocket 3.6 05:02:44 19° WNW 05:04:59 24° WSW 05:09:24 10° SSW
SL-16 R/B 4.3 05:00:53 10° SSE 05:05:41 30° ESE 05:10:32 10° NE
Cosmos 2074 Rocket 3.9 05:00:28 10° SSW 05:06:41 70° W 05:12:55 10° N
CZ-2C R/B 2.7 05:02:32 10° N 05:07:34 51° WNW 05:12:32 10° SSW
Meteor 1-21 4.4 05:05:27 10° SSW 05:10:48 47° WNW 05:16:13 10° N
Okean O Rocket 3.1 05:07:46 10° NNE 05:11:57 41° E 05:16:04 10° S
Cosmos 2181 Rocket 4.5 05:06:17 10° NNW 05:12:03 37° W 05:17:43 10° SSW
NOSS 3-4 (A) 3.4 05:07:45 10° SSW 05:13:45 87° ESE 05:20:05 10° NE
NOSS 3-4 (C) 3.5 05:07:49 10° SSW 05:13:50 86° SE 05:20:11 10° NE
USA 234 4.1 05:08:47 10° S 05:14:20 29° SW 05:19:13 13° WNW
Cosmos 2333 Rocket 2.8 05:10:28 15° WSW 05:14:36 35° WNW 05:19:47 10° N
Cosmos 1140 Rocket 3.8 05:12:20 10° S 05:17:30 72° ESE 05:22:40 10° NNE
Cosmos 1953 2.4 05:13:28 10° N 05:17:32 83° E 05:21:32 10° S
NOSS 2-2 (D) 4.4 05:16:45 19° W 05:18:24 25° NW 05:21:50 10° NNE
PSLV R/B 3.6 05:15:43 10° N 05:19:25 66° WNW 05:23:04 10° SSW
Cosmos 2278 Rocket 2.2 05:14:12 10° NNW 05:19:54 81° WSW 05:25:33 10° SSE
Cosmos 1726 Rocket 4.2 05:16:04 10° N 05:20:20 58° E 05:24:35 10° SSE
Cosmos 1758 3.6 05:18:52 10° NNW 05:22:41 45° W 05:26:31 10° SSW
H-2A R/B 3.9 05:19:52 10° NNW 05:22:42 18° WNW 05:24:32 14° W
SJ-12 4.1 05:20:13 10° NNE 05:24:19 79° ESE 05:28:24 10° S
FENGYUN 3A 4.5 05:20:06 10° NNE 05:25:28 56° E 05:30:47 10° S
NOSS 0 Rocket 4.0 05:21:50 10° SW 05:27:51 57° WNW 05:33:58 10° NNE
Cosmos 1726 3.8 05:25:01 10° N 05:28:26 37° ENE 05:31:50 10° SSE
Cosmos 2058 Rocket 4.3 05:24:31 10° N 05:28:47 47° E 05:33:02 10° SSE
Cosmos 614 Rocket 4.0 05:24:06 10° SSW 05:29:15 60° WNW 05:34:27 10° NNE
Cosmos 1025 Rocket 4.2 05:28:52 10° WSW 05:32:05 21° WNW 05:35:18 10° NNW
Cosmos 1356 4.4 05:28:47 10° N 05:32:10 50° ENE 05:35:31 10° SSE
RESURS DK-1 3.9 05:29:31 10° S 05:33:23 40° ESE 05:37:16 10° NE
Cosmos 2228 3.0 05:31:24 10° N 05:35:42 87° WSW 05:39:55 10° S
ATLAS 3B R/B 2.8 05:36:09 10° NNW 05:42:53 86° ENE 05:49:48 10° SE
ALOS 2.3 05:39:55 10° NNE 05:44:37 89° W 05:49:16 10° SSW
SKYMED 2 3.8 05:42:28 10° S 05:46:40 49° W 05:50:54 10° NNW
Cosmos 921 Rocket 4.0 05:44:08 10° NW 05:47:42 26° W 05:51:12 10° SSW
METEOR-M 4.2 05:42:23 10° NNE 05:47:46 86° WNW 05:53:06 10° SSW
Cosmos 676 Rocket 4.0 05:43:48 10° SSW 05:49:05 76° WNW 05:54:23 10° NNE
Meteor 1-4 Rocket 2.9 05:46:00 10° SSW 05:49:20 39° WNW 05:52:39 10° N
GP-B 3.3 05:45:48 10° SSW 05:50:08 52° W 05:54:28 10° NNW
PAYLOAD B 4.3 05:45:30 10° N 05:51:01 66° WNW 05:56:30 10° SSW
ASTEX 1 4.3 05:46:19 10° SSE 05:51:04 55° E 05:55:50 10° N
ATLAS 2AS CENTAUR R/B 3.5 05:47:08 10° WSW 05:54:43 45° NW 06:02:22 10° NNE
BREEZE-M DEB (TANK) 3.2 05:51:01 10° SW 05:58:25 56° SSE 06:01:00 10° ENE
